[keps] orb08017.2l.amsat
Ray Hoad
r.hoad at att.net
Thu Jan 17 18:15:52 PST 2008
SB KEPS @ AMSAT $ORB08017.N
2Line Orbital Elements 08017.AMSAT
HR AMSAT ORBITAL ELEMENTS FOR AMATEUR SATELLITES IN NASA FORMAT
FROM WA5QGD FORT WORTH,TX January 17, 2008
Send Subscribe/unsubscribe to KEPS at
http://www.amsat.org/mailman/listinfo/keps
BID: ORB08017.N
DECODE 2-LINE ELSETS WITH THE FOLLOWING KEY:
1 AAAAAU 00 0 0 BBBBB.BBBBBBBB .CCCCCCCC 00000-0 00000-0 0 DDDZ
2 AAAAA EEE.EEEE FFF.FFFF GGGGGGG HHH.HHHH III.IIII JJ.JJJJJJJJKKKKKZ
KEY: A-CATALOGNUM B-EPOCHTIME C-DECAY D-ELSETNUM E-INCLINATION F-RAAN
G-ECCENTRICITY H-ARGPERIGEE I-MNANOM J-MNMOTION K-ORBITNUM Z-CHECKSUM
TO ALL RADIO AMATEURS BT
AO-07
1 07530U 74089B 08017.18247696 -.00000027 00000-0 10000-3 0 795
2 07530 101.4876 053.6554 0012010 197.9993 162.0652 12.53573355517939
AO-10
1 14129U 83058B 08016.75822671 .00000220 00000-0 10000-3 0 4627
2 14129 025.9390 235.2993 6038443 090.6802 334.3615 02.05869298184965
UO-11
1 14781U 84021B 08017.23145762 -.00000248 00000-0 -25774-4 0 5724
2 14781 098.1732 048.8487 0008780 196.7614 163.3310 14.79609228281386
RS-15
1 23439U 94085A 08015.48828039 -.00000039 00000-0 10000-3 0 01464
2 23439 064.8189 023.5918 0151917 152.0576 208.8607 11.27551839537634
FO-29
1 24278U 96046B 08017.22246399 .00000065 00000-0 10548-3 0 6833
2 24278 098.5796 313.4161 0349784 248.8997 107.4427 13.52935236563840
SO-33
1 25509U 98061B 08017.57974147 .00000174 00000-0 22447-4 0 1127
2 25509 031.4287 093.5664 0355053 141.7835 220.8522 14.28192039481925
AO-40
1 26609U 00072B 08015.93475078 -.00000289 00000-0 10000-3 0 9937
2 26609 007.3058 102.2238 7929334 042.2401 356.4909 01.25582493 33119
VO-52
1 28650U 05017B 08017.02901249 .00000333 00000-0 49119-4 0 8319
2 28650 097.8087 087.6867 0026106 277.5671 082.2615 14.81410662146079
PO-63
1 29712U 07001D 08017.24842568 .00000652 00000-0 92918-4 0 1048
2 29712 097.8974 078.1647 0014752 151.1544 209.0488 14.79988020 54996
AO-16
1 20439U 90005D 08016.51607680 .00000013 00000-0 20213-4 0 2281
2 20439 098.2149 004.5126 0009961 273.1815 086.8240 14.31781683939071
LO-19
1 20442U 90005G 08017.42722055 .00000074 00000-0 42572-4 0 1525
2 20442 098.1913 014.3285 0010947 266.2587 093.7371 14.32021364939350
AO-27
1 22825U 93061C 08015.39381716 -.00000126 00000-0 -33345-4 0 08756
2 22825 098.3640 341.3613 0008312 002.0665 358.0542 14.29227221745808
IO-26
1 22826U 93061D 08017.08443362 -.00000011 00000-0 11993-4 0 5777
2 22826 098.3565 343.9634 0008985 352.9424 007.1640 14.29475418746133
PO-28
1 22829U 93061G 08017.42533421 .00000046 00000-0 33731-4 0 8510
2 22829 098.3452 345.4211 0009236 323.1970 036.8575 14.30178123746439
GO-32
1 25397U 98043D 08015.77048361 -.00000002 00000-0 17181-4 0 05025
2 25397 098.3863 058.3515 0001092 017.1509 342.9687 14.23137290494397
MO-46
1 26548U 00057D 08016.92513892 -.00000025 00000-0 14750-4 0 9990
2 26548 064.5564 241.4009 0011789 344.7552 015.3148 14.83219390395237
NO-44
1 26931U 01043C 08017.32272770 .00000183 00000-0 10370-3 0 7821
2 26931 067.0546 315.8743 0004830 268.8449 091.2111 14.29510049328708
SO-50
1 27607U 02058C 08017.43606364 .00000033 00000-0 27225-4 0 5067
2 27607 064.5576 154.4853 0077667 309.7975 049.6316 14.71319746272643
CO-55
1 27844U 03031E 08017.22889534 .00000031 00000-0 34838-4 0 2132
2 27844 098.7178 027.5927 0009703 190.1575 169.9393 14.20555014235867
CO-57
1 27848U 03031J 08015.51607635 .00000007 00000-0 23571-4 0 01680
2 27848 098.7176 025.0336 0009347 200.2167 159.8619 14.20367617235599
AO-51
1 28375U 04025K 08017.14821987 .00000006 00000-0 14912-4 0 80
2 28375 098.0874 050.1459 0083139 254.4080 104.7920 14.40593992186514
CO-56
1 28941U 06005C 08017.19221214 .00026941 26952-5 23934-3 0 7648
2 28941 098.1060 108.2198 0194116 230.0153 128.3913 15.48536176106454
HO-59
1 29484U 06041F 08017.30486302 .00081211 45900-5 36432-3 0 448
2 29484 098.2560 107.2943 0141510 207.5224 151.8503 15.70645540 74459
NO-61
1 29664U 06055F 07359.16654419 .14620719 12705-4 12723-3 0 7381
2 29664 051.6179 150.0690 0003189 248.8461 111.8136 16.51627846 58777
CP4
1 31122U 07012F 08017.26182203 .00000552 00000-0 13192-3 0 2375
2 31122 098.0632 088.3676 0086876 081.0481 280.0517 14.55077487 39984
CP3
1 31128U 07012M 08017.17197355 -.00000046 00000-0 00000 0 0 2329
2 31128 098.0610 086.9046 0104022 084.9470 276.3607 14.51905406 39878
LIBERT
1 31129U 07012N 08017.22422361 .00000339 00000-0 89029-4 0 6774
2 31129 098.0591 086.9792 0103393 084.4777 276.8182 14.51995751 39864
NOAA-10
1 16969U 86073A 08017.10898942 -.00000088 00000-0 -17770-4 0 9682
2 16969 098.7348 039.2921 0011609 265.2724 094.7144 14.27347243109740
NOAA-11
1 19531U 88089A 08017.26644336 -.00000218 00000-0 -90458-4 0 20
2 19531 098.8025 108.7009 0011902 138.0364 222.1723 14.14862288996429
NOAA-12
1 21263U 91032A 08017.45261252 .00000166 00000-0 88937-4 0 5080
2 21263 098.7639 019.4441 0012151 202.3665 157.7001 14.25513302866776
MET-3/5
1 21655U 91056A 08015.88700235 .00000051 00000-0 10000-3 0 04318
2 21655 082.5516 212.6595 0014483 039.4017 320.8156 13.17014215789400
MET-2/21
1 22782U 93055A 08016.84264035 -.00000058 00000-0 -66033-4 0 392
2 22782 082.5446 232.4110 0022599 001.0985 359.0233 13.83623976726069
OKEAN-4
1 23317U 94066A 08017.40460423 .00000285 00000-0 32374-4 0 4803
2 23317 082.5396 096.7002 0020393 267.3372 092.5500 14.82571197715797
NOAA-14
1 23455U 94089A 08017.31341174 .00000263 00000-0 16292-3 0 9803
2 23455 098.9644 089.3640 0009117 209.7324 150.3352 14.13734564672895
SICH-1
1 23657U 95046A 08017.12011374 .00000222 00000-0 25224-4 0 2798
2 23657 082.5246 237.9016 0022298 260.0733 099.7977 14.81544734667709
NOAA-15
1 25338U 98030A 08017.44903604 .00000101 00000-0 61744-4 0 3168
2 25338 098.5465 013.2419 0011439 121.8106 238.4212 14.24682387503192
RESURS
1 25394U 98043A 08017.21304911 -.00000011 00000-0 13062-4 0 8330
2 25394 098.4120 067.9319 0000983 322.6067 037.5043 14.24152312494813
FENGYUN1
1 25730U 99025A 08017.80453621 .00000082 00000-0 73595-4 0 3174
2 25730 098.7116 358.7907 0020221 236.4741 123.4497 14.07663169447664
OKEAN-0
1 25860U 99039A 08017.00627420 .00000049 00000-0 14682-4 0 2641
2 25860 097.7402 014.3727 0001857 063.3016 296.8373 14.73496993456981
NOAA-16
1 26536U 00055A 08017.47468720 -.00000240 00000-0 -10475-3 0 7655
2 26536 099.1437 003.4292 0009766 293.7160 066.2976 14.12464828377354
NOAA-17
1 27453U 02032A 08017.34689710 .00000129 00000-0 74909-4 0 7647
2 27453 098.5551 086.2428 0011862 186.2044 173.8993 14.23942153289192
NOAA-18
1 28654U 05018A 08017.31909626 .00000468 00000-0 28378-3 0 2768
2 28654 098.8538 320.2429 0014776 026.2361 333.9559 14.11130857137059
HUBBLE
1 20580U 90037B 08017.81126465 .00000347 00000-0 13998-4 0 509
2 20580 028.4683 230.5038 0003895 217.1770 142.8542 15.00327835772229
UARS
1 21701U 91063B 08017.70933868 .00006017 00000-0 98721-4 0 2684
2 21701 056.9744 101.6407 0082293 245.0752 114.1735 15.50283515898996
PO-34
1 25520U 98064B 08016.64991711 .00000471 00000-0 13463-4 0 9100
2 25520 028.4596 119.9491 0005037 065.1744 294.9376 15.17116983509978
ISS
1 25544U 98067A 08017.94000000 .00024699 00000-0 15124-3 0 7353
2 25544 051.6386 076.3166 0005494 294.4977 055.3091 15.77157562524655
OO-38
1 26063U 00004C 08016.75309043 -.00000033 00000-0 89864-5 0 1121
2 26063 100.2130 063.7076 0036551 279.0439 080.6601 14.35825229417698
UWE-1
1 28892U 05043C 08016.96663781 .00000228 00000-0 57573-4 0 9502
2 28892 098.1123 274.0985 0017763 161.5822 198.6054 14.59584264118392
CO-58
1 28895U 05043F 08016.93886864 .00000164 00000-0 43949-4 0 9243
2 28895 098.1166 274.3672 0018133 161.4985 198.6892 14.59626101118273
NCUBE2
1 28897U 05043H 08017.26373056 .00000129 00000-0 36535-4 0 4548
2 28897 098.1136 274.6237 0017385 162.7689 197.4084 14.59793487110606
FCAL
1 29667U 06055J 08017.53173000 .00038967 12004-4 83919-4 0 6761
2 29667 051.6323 042.6567 0010273 100.6956 259.5214 15.99197591 62161
FALCON
1 30776U 07006E 08017.38183232 .00000453 00000-0 36176-4 0 2275
2 30776 035.4347 354.0660 0000460 180.8220 179.2495 15.02855322 47298
MAST
1 31126U 07012K 08016.68225489 .00000065 00000-0 25271-4 0 2324
2 31126 098.0607 087.0763 0095780 084.6680 276.5436 14.53393131 39869
CAPE1
1 31130U 07012P 08017.71980727 -.00000129 00000-0 -19162-4 0 2131
2 31130 098.0617 087.4337 0104186 083.4934 277.8110 14.51922048 39749
/EX
More information about the Keps
mailing list